Regional Weather Roundup
Issued by NWS

Home | Current Version | Previous Version | Graphics & Text | Print | Product List | Glossary On
Versions: 1 2 3 4 5 6 7 8 9 10 11 12 13 14 15 16 17 18 19 20 21 22 23 24 25 26 27 28 29 30 31 32 33 34 35 36 37 38 39 40 41 42 43 44 45 46 47 48 49 50
000
ASUS43 KDTX 041910
RWRMI
MICHIGAN HOURLY REGIONAL WEATHER ROUNDUP
NATIONAL WEATHER SERVICE DETROIT/PONTIAC MI
200 PM EST WED MAR 04 2015

NOTE: "FAIR" INDICATES FEW OR NO CLOUDS BELOW 12,000 FEET WITH NO
SIGNIFICANT WEATHER AND/OR OBSTRUCTION TO VISIBILITY.

MIZ047>049-052>055-059>063-066>070-074>076-081>083-042000-
SOUTHEAST LOWER MICHIGAN

CITY           SKY/WX    TMP DP  RH WIND       PRES   REMARKS
ADRIAN         CLOUDY    32  18  56 NW12      29.98S
ANN ARBOR      CLOUDY    32  18  56 W18       29.95S
DETROIT CITY   CLOUDY    36  17  46 W13G21    29.93F
DETROIT        CLOUDY    34  18  52 W13G22    29.94F
FLINT          PTSUNNY   30  14  51 W17       29.95F

CITY           SKY/WX    TMP DP  RH WIND       PRES   REMARKS
LANSING        MOSUNNY   27  11  51 W21G26    29.98S
LAPEER         NOT AVBL
PONTIAC        CLOUDY    30  15  53 W18       29.91F
PORT HOPE        N/A     28  14  55 W12G17    29.90S
TRI CITIES     MOSUNNY   28  12  51 W18       29.95S
YPSILANTI      CLOUDY    36  18  48 W16       29.95S
$$
MIZ043>046-050>051-056>058-064>065-071>073-077>080-042000-
SOUTHWEST LOWER MICHIGAN

CITY           SKY/WX    TMP DP  RH WIND       PRES   REMARKS
$$
MIZ016>042-042000-
NORTHERN LOWER MICHIGAN

CITY           SKY/WX    TMP DP  RH WIND       PRES   REMARKS
ALPENA         CLOUDY    21   8  57 W10G17    29.92R
$$
MIZ007>008-015-042000-
EASTERN UPPER MICHIGAN

CITY           SKY/WX    TMP DP  RH WIND       PRES   REMARKS
$$
MIZ004>006-011>014-085-042000-
CENTRAL UPPER MICHIGAN

CITY           SKY/WX    TMP DP  RH WIND       PRES   REMARKS
SAWYER-GWINN   CLOUDY     7  -9  47 W17G23    29.96R WCI -12
$$
MIZ001>003-009>011-084-042000-
WESTERN UPPER MICHIGAN

CITY           SKY/WX    TMP DP  RH WIND       PRES   REMARKS
HOUGHTON       HVY SNOW   2  -5  72 NW28G40   29.98R VSB 1/4 WCI -22
COPPER HARBOR    N/A      3  -8  60 N25G35    30.01R WCI -20
$$

ABBREVIATIONS USED IN REMARKS
   TC - TEMPERATURE IN CELSIUS
  WCI - WIND CHILL INDEX
   HX - HEAT INDEX
  VSB - VISIBILITY




USA.gov is the U.S. government's official web portal to all federal, state and local government web resources and services.